Year,Month,Day,Hour,Minute,Value (Times are PST for temperature in C)
2009,07,16,00,00,14.10
2009,07,16,00,01,14.10
2009,07,16,00,02,14.10
2009,07,16,00,03,14.10
2009,07,16,00,04,14.10
2009,07,16,00,05,14.10
2009,07,16,00,06,14.10
2009,07,16,00,07,14.10
2009,07,16,00,08,14.10
2009,07,16,00,09,14.10
2009,07,16,00,10,14.10
2009,07,16,00,11,14.10
2009,07,16,00,12,14.20
2009,07,16,00,13,14.20
2009,07,16,00,14,14.20
2009,07,16,00,15,14.20
2009,07,16,00,16,14.20
2009,07,16,00,17,14.20
2009,07,16,00,18,14.20
2009,07,16,00,19,14.20
2009,07,16,00,20,14.20
2009,07,16,00,21,14.20
2009,07,16,00,22,14.20
2009,07,16,00,23,14.20
2009,07,16,00,24,14.20
2009,07,16,00,25,14.20
2009,07,16,00,26,14.20
2009,07,16,00,27,14.20
2009,07,16,00,28,14.10
2009,07,16,00,29,14.20
2009,07,16,00,30,14.20
2009,07,16,00,31,14.20
2009,07,16,00,32,14.20
2009,07,16,00,33,14.20
2009,07,16,00,34,14.20
2009,07,16,00,35,14.10
2009,07,16,00,36,14.10
2009,07,16,00,37,14.10
2009,07,16,00,38,14.10
2009,07,16,00,39,14.10
2009,07,16,00,40,14.10
2009,07,16,00,41,14.10
2009,07,16,00,42,14.10
2009,07,16,00,43,14.10
2009,07,16,00,44,14.10
2009,07,16,00,45,14.10
2009,07,16,00,46,14.10
2009,07,16,00,47,14.10
2009,07,16,00,48,14.10
2009,07,16,00,49,14.10
2009,07,16,00,50,14.10
2009,07,16,00,51,14.10
2009,07,16,00,52,14.10
2009,07,16,00,53,14.10
2009,07,16,00,54,14.10
2009,07,16,00,55,14.20
2009,07,16,00,56,14.20
2009,07,16,00,57,14.20
2009,07,16,00,58,14.20
2009,07,16,00,59,14.20
2009,07,16,01,00,14.20
2009,07,16,01,01,14.10
2009,07,16,01,02,14.10
2009,07,16,01,03,14.10
2009,07,16,01,04,14.10
2009,07,16,01,05,14.20
2009,07,16,01,06,14.10
2009,07,16,01,07,14.10
2009,07,16,01,08,14.10
2009,07,16,01,09,14.10
2009,07,16,01,10,14.10
2009,07,16,01,11,14.10
2009,07,16,01,12,14.10
2009,07,16,01,13,14.10
2009,07,16,01,14,14.10
2009,07,16,01,15,14.10
2009,07,16,01,16,14.10
2009,07,16,01,17,14.10
2009,07,16,01,18,14.10
2009,07,16,01,19,14.00
2009,07,16,01,20,14.00
2009,07,16,01,21,14.00
2009,07,16,01,22,14.00
2009,07,16,01,23,13.90
2009,07,16,01,24,13.90
2009,07,16,01,25,13.90
2009,07,16,01,26,13.90
2009,07,16,01,27,13.90
2009,07,16,01,28,13.90
2009,07,16,01,29,13.90
2009,07,16,01,30,13.90
2009,07,16,01,31,13.90
2009,07,16,01,32,13.90
2009,07,16,01,33,13.90
2009,07,16,01,34,13.90
2009,07,16,01,35,13.90
2009,07,16,01,36,13.90
2009,07,16,01,37,13.90
2009,07,16,01,38,13.90
2009,07,16,01,39,13.90
2009,07,16,01,40,13.90
2009,07,16,01,41,13.90
2009,07,16,01,42,13.90
2009,07,16,01,43,13.90
2009,07,16,01,44,13.80
2009,07,16,01,45,13.80
2009,07,16,01,46,13.80
2009,07,16,01,47,13.80
2009,07,16,01,48,13.80
2009,07,16,01,49,13.80
2009,07,16,01,50,13.80
2009,07,16,01,51,13.80
2009,07,16,01,52,13.80
2009,07,16,01,53,13.80
2009,07,16,01,54,13.80
2009,07,16,01,55,13.80
2009,07,16,01,56,13.80
2009,07,16,01,57,13.80
2009,07,16,01,58,13.80
2009,07,16,01,59,13.80
2009,07,16,02,00,13.80
2009,07,16,02,01,13.80
2009,07,16,02,02,13.80
2009,07,16,02,03,13.80
2009,07,16,02,04,13.80
2009,07,16,02,05,13.80
2009,07,16,02,06,13.80
2009,07,16,02,07,13.80
2009,07,16,02,08,13.80
2009,07,16,02,09,13.80
2009,07,16,02,10,13.80
2009,07,16,02,11,13.80
2009,07,16,02,12,13.80
2009,07,16,02,13,13.70
2009,07,16,02,14,13.70
2009,07,16,02,15,13.70
2009,07,16,02,16,13.70
2009,07,16,02,17,13.70
2009,07,16,02,18,13.70
2009,07,16,02,19,13.60
2009,07,16,02,20,13.60
2009,07,16,02,21,13.60
2009,07,16,02,22,13.60
2009,07,16,02,23,13.50
2009,07,16,02,24,13.50
2009,07,16,02,25,13.50
2009,07,16,02,26,13.40
2009,07,16,02,27,13.40
2009,07,16,02,28,13.40
2009,07,16,02,29,13.40
2009,07,16,02,30,13.40
2009,07,16,02,31,13.40
2009,07,16,02,32,13.30
2009,07,16,02,33,13.30
2009,07,16,02,34,13.30
2009,07,16,02,35,13.30
2009,07,16,02,36,13.30
2009,07,16,02,37,13.30
2009,07,16,02,38,13.30
2009,07,16,02,39,13.20
2009,07,16,02,40,13.20
2009,07,16,02,41,13.20
2009,07,16,02,42,13.20
2009,07,16,02,43,13.20
2009,07,16,02,44,13.20
2009,07,16,02,45,13.20
2009,07,16,02,46,13.20
2009,07,16,02,47,13.10
2009,07,16,02,48,13.10
2009,07,16,02,49,13.10
2009,07,16,02,50,13.10
2009,07,16,02,51,13.10
2009,07,16,02,52,13.10
2009,07,16,02,53,13.10
2009,07,16,02,54,13.20
2009,07,16,02,55,13.20
2009,07,16,02,56,13.20
2009,07,16,02,57,13.20
2009,07,16,02,58,13.20
2009,07,16,02,59,13.20
2009,07,16,03,00,13.10
2009,07,16,03,01,13.10
2009,07,16,03,02,13.10
2009,07,16,03,03,13.10
2009,07,16,03,04,13.10
2009,07,16,03,05,13.10
2009,07,16,03,06,13.10
2009,07,16,03,07,13.10
2009,07,16,03,08,13.10
2009,07,16,03,09,13.10
2009,07,16,03,10,13.10
2009,07,16,03,11,13.10
2009,07,16,03,12,13.10
2009,07,16,03,13,13.10
2009,07,16,03,14,13.10
2009,07,16,03,15,13.00
2009,07,16,03,16,12.90
2009,07,16,03,17,12.80
2009,07,16,03,18,12.80
2009,07,16,03,19,12.70
2009,07,16,03,20,12.70
2009,07,16,03,21,12.60
2009,07,16,03,22,12.60
2009,07,16,03,23,12.50
2009,07,16,03,24,12.50
2009,07,16,03,25,12.40
2009,07,16,03,26,12.40
2009,07,16,03,27,12.40
2009,07,16,03,28,12.30
2009,07,16,03,29,12.30
2009,07,16,03,30,12.30
2009,07,16,03,31,12.30
2009,07,16,03,32,12.20
2009,07,16,03,33,12.20
2009,07,16,03,34,12.10
2009,07,16,03,35,12.10
2009,07,16,03,36,12.10
2009,07,16,03,37,12.00
2009,07,16,03,38,12.00
2009,07,16,03,39,12.00
2009,07,16,03,40,12.00
2009,07,16,03,41,12.00
2009,07,16,03,42,11.90
2009,07,16,03,43,11.90
2009,07,16,03,44,11.90
2009,07,16,03,45,12.00
2009,07,16,03,46,11.90
2009,07,16,03,47,11.90
2009,07,16,03,48,11.90
2009,07,16,03,49,11.90
2009,07,16,03,50,11.90
2009,07,16,03,51,11.90
2009,07,16,03,52,11.90
2009,07,16,03,53,11.90
2009,07,16,03,54,11.90
2009,07,16,03,55,11.90
2009,07,16,03,56,11.90
2009,07,16,03,57,11.90
2009,07,16,03,58,11.90
2009,07,16,03,59,11.90
2009,07,16,04,00,11.90
2009,07,16,04,01,11.90
2009,07,16,04,02,11.90
2009,07,16,04,03,11.90
2009,07,16,04,04,11.90
2009,07,16,04,05,11.80
2009,07,16,04,06,11.80
2009,07,16,04,07,11.80
2009,07,16,04,08,11.80
2009,07,16,04,09,11.80
2009,07,16,04,10,11.80
2009,07,16,04,11,11.80
2009,07,16,04,12,11.80
2009,07,16,04,13,11.80
2009,07,16,04,14,11.80
2009,07,16,04,15,11.80
2009,07,16,04,16,11.80
2009,07,16,04,17,11.70
2009,07,16,04,18,11.70
2009,07,16,04,19,11.70
2009,07,16,04,20,11.70
2009,07,16,04,21,11.70
2009,07,16,04,22,11.70
2009,07,16,04,23,11.70
2009,07,16,04,24,11.70
2009,07,16,04,25,11.70
2009,07,16,04,26,11.70
2009,07,16,04,27,11.70
2009,07,16,04,28,11.70
2009,07,16,04,29,11.60
2009,07,16,04,30,11.70
2009,07,16,04,31,11.60
2009,07,16,04,32,11.60
2009,07,16,04,33,11.60
2009,07,16,04,34,11.60
2009,07,16,04,35,11.60
2009,07,16,04,36,11.60
2009,07,16,04,37,11.60
2009,07,16,04,38,11.60
2009,07,16,04,39,11.60
2009,07,16,04,40,11.60
2009,07,16,04,41,11.60
2009,07,16,04,42,11.60
2009,07,16,04,43,11.60
2009,07,16,04,44,11.60
2009,07,16,04,45,11.50
2009,07,16,04,46,11.60
2009,07,16,04,47,11.50
2009,07,16,04,48,11.50
2009,07,16,04,49,11.50
2009,07,16,04,50,11.50
2009,07,16,04,51,11.50
2009,07,16,04,52,11.50
2009,07,16,04,53,11.50
2009,07,16,04,54,11.50
2009,07,16,04,55,11.50
2009,07,16,04,56,11.50
2009,07,16,04,57,11.50
2009,07,16,04,58,11.50
2009,07,16,04,59,11.50
2009,07,16,05,00,11.50
2009,07,16,05,01,11.50
2009,07,16,05,02,11.40
2009,07,16,05,03,11.40
2009,07,16,05,04,11.40
2009,07,16,05,05,11.40
2009,07,16,05,06,11.40
2009,07,16,05,07,11.40
2009,07,16,05,08,11.40
2009,07,16,05,09,11.40
2009,07,16,05,10,11.40
2009,07,16,05,11,11.40
2009,07,16,05,12,11.40
2009,07,16,05,13,11.40
2009,07,16,05,14,11.40
2009,07,16,05,15,11.40
2009,07,16,05,16,11.40
2009,07,16,05,17,11.40
2009,07,16,05,18,11.40
2009,07,16,05,19,11.40
2009,07,16,05,20,11.30
2009,07,16,05,21,11.30
2009,07,16,05,22,11.30
2009,07,16,05,23,11.30
2009,07,16,05,24,11.30
2009,07,16,05,25,11.30
2009,07,16,05,26,11.30
2009,07,16,05,27,11.30
2009,07,16,05,28,11.30
2009,07,16,05,29,11.30
2009,07,16,05,30,11.30
2009,07,16,05,31,11.30
2009,07,16,05,32,11.30
2009,07,16,05,33,11.30
2009,07,16,05,34,11.30
2009,07,16,05,35,11.30
2009,07,16,05,36,11.20
2009,07,16,05,37,11.20
2009,07,16,05,38,11.20
2009,07,16,05,39,11.20
2009,07,16,05,40,11.20
2009,07,16,05,41,11.20
2009,07,16,05,42,11.20
2009,07,16,05,43,11.20
2009,07,16,05,44,11.20
2009,07,16,05,45,11.20
2009,07,16,05,46,11.20
2009,07,16,05,47,11.20
2009,07,16,05,48,11.20
2009,07,16,05,49,11.20
2009,07,16,05,50,11.20
2009,07,16,05,51,11.20
2009,07,16,05,52,11.20
2009,07,16,05,53,11.20
2009,07,16,05,54,11.20
2009,07,16,05,55,11.20
2009,07,16,05,56,11.20
2009,07,16,05,57,11.20
2009,07,16,05,58,11.20
2009,07,16,05,59,11.20
2009,07,16,06,00,11.20
2009,07,16,06,01,11.20
2009,07,16,06,02,11.20
2009,07,16,06,03,11.20
2009,07,16,06,04,11.20
2009,07,16,06,05,11.20
2009,07,16,06,06,11.20
2009,07,16,06,07,11.20
2009,07,16,06,08,11.30
2009,07,16,06,09,11.30
2009,07,16,06,10,11.30
2009,07,16,06,11,11.30
2009,07,16,06,12,11.30
2009,07,16,06,13,11.40
2009,07,16,06,14,11.40
2009,07,16,06,15,11.50
2009,07,16,06,16,11.50
2009,07,16,06,17,11.60
2009,07,16,06,18,11.60
2009,07,16,06,19,11.60
2009,07,16,06,20,11.70
2009,07,16,06,21,11.70
2009,07,16,06,22,11.80
2009,07,16,06,23,11.80
2009,07,16,06,24,11.80
2009,07,16,06,25,11.90
2009,07,16,06,26,11.90
2009,07,16,06,27,11.90
2009,07,16,06,28,11.90
2009,07,16,06,29,12.00
2009,07,16,06,30,12.00
2009,07,16,06,31,12.10
2009,07,16,06,32,12.10
2009,07,16,06,33,12.20
2009,07,16,06,34,12.20
2009,07,16,06,35,12.20
2009,07,16,06,36,12.20
2009,07,16,06,37,12.20
2009,07,16,06,38,12.30
2009,07,16,06,39,12.30
2009,07,16,06,40,12.30
2009,07,16,06,41,12.30
2009,07,16,06,42,12.30
2009,07,16,06,43,12.40
2009,07,16,06,44,12.40
2009,07,16,06,45,12.40
2009,07,16,06,46,12.50
2009,07,16,06,47,12.50
2009,07,16,06,48,12.60
2009,07,16,06,49,12.60
2009,07,16,06,50,12.70
2009,07,16,06,51,12.70
2009,07,16,06,52,12.70
2009,07,16,06,53,12.80
2009,07,16,06,54,12.80
2009,07,16,06,55,12.80
2009,07,16,06,56,12.80
2009,07,16,06,57,12.90
2009,07,16,06,58,12.90
2009,07,16,06,59,13.00
2009,07,16,07,00,13.00
2009,07,16,07,01,13.10
2009,07,16,07,02,13.10
2009,07,16,07,03,13.20
2009,07,16,07,04,13.20
2009,07,16,07,05,13.30
2009,07,16,07,06,13.30
2009,07,16,07,07,13.30
2009,07,16,07,08,13.40
2009,07,16,07,09,13.40
2009,07,16,07,10,13.50
2009,07,16,07,11,13.60
2009,07,16,07,12,13.60
2009,07,16,07,13,13.70
2009,07,16,07,14,13.70
2009,07,16,07,15,13.80
2009,07,16,07,16,13.90
2009,07,16,07,17,14.00
2009,07,16,07,18,14.10
2009,07,16,07,19,14.20
2009,07,16,07,20,14.30
2009,07,16,07,21,14.40
2009,07,16,07,22,14.50
2009,07,16,07,23,14.60
2009,07,16,07,24,14.60
2009,07,16,07,25,14.70
2009,07,16,07,26,14.80
2009,07,16,07,27,15.00
2009,07,16,07,28,15.00
2009,07,16,07,29,15.00
2009,07,16,07,30,15.10
2009,07,16,07,31,15.20
2009,07,16,07,32,15.20
2009,07,16,07,33,15.30
2009,07,16,07,34,15.30
2009,07,16,07,35,15.30
2009,07,16,07,36,15.20
2009,07,16,07,37,15.10
2009,07,16,07,38,15.10
2009,07,16,07,39,15.00
2009,07,16,07,40,15.00
2009,07,16,07,41,15.00
2009,07,16,07,42,15.00
2009,07,16,07,43,15.10
2009,07,16,07,44,15.20
2009,07,16,07,45,15.30
2009,07,16,07,46,15.40
2009,07,16,07,47,15.50
2009,07,16,07,48,15.50
2009,07,16,07,49,15.60
2009,07,16,07,50,15.60
2009,07,16,07,51,15.70
2009,07,16,07,52,15.70
2009,07,16,07,53,15.80
2009,07,16,07,54,15.90
2009,07,16,07,55,15.90
2009,07,16,07,56,15.90
2009,07,16,07,57,15.90
2009,07,16,07,58,15.90
2009,07,16,07,59,16.00
2009,07,16,08,00,16.00
2009,07,16,08,01,16.10
2009,07,16,08,02,16.10
2009,07,16,08,03,16.20
2009,07,16,08,04,16.20
2009,07,16,08,05,16.20
2009,07,16,08,06,16.20
2009,07,16,08,07,16.20
2009,07,16,08,08,16.20
2009,07,16,08,09,16.20
2009,07,16,08,10,16.20
2009,07,16,08,11,16.20
2009,07,16,08,12,16.30
2009,07,16,08,13,16.30
2009,07,16,08,14,16.30
2009,07,16,08,15,16.40
2009,07,16,08,16,16.50
2009,07,16,08,17,16.60
2009,07,16,08,18,16.60
2009,07,16,08,19,16.70
2009,07,16,08,20,16.70
2009,07,16,08,21,16.80
2009,07,16,08,22,16.80
2009,07,16,08,23,16.80
2009,07,16,08,24,16.80
2009,07,16,08,25,16.80
2009,07,16,08,26,16.80
2009,07,16,08,27,16.80
2009,07,16,08,28,16.80
2009,07,16,08,29,16.90
2009,07,16,08,30,16.90
2009,07,16,08,31,16.90
2009,07,16,08,32,16.80
2009,07,16,08,33,16.90
2009,07,16,08,34,16.80
2009,07,16,08,35,16.80
2009,07,16,08,36,16.80
2009,07,16,08,37,16.70
2009,07,16,08,38,16.70
2009,07,16,08,39,16.80
2009,07,16,08,40,16.80
2009,07,16,08,41,16.80
2009,07,16,08,42,16.90
2009,07,16,08,43,16.90
2009,07,16,08,44,17.00
2009,07,16,08,45,17.10
2009,07,16,08,46,17.20
2009,07,16,08,47,17.20
2009,07,16,08,48,17.10
2009,07,16,08,49,17.10
2009,07,16,08,50,17.10
2009,07,16,08,51,17.10
2009,07,16,08,52,17.10
2009,07,16,08,53,17.00
2009,07,16,08,54,17.00
2009,07,16,08,55,16.90
2009,07,16,08,56,16.90
2009,07,16,08,57,16.90
2009,07,16,08,58,16.90
2009,07,16,08,59,16.90
2009,07,16,09,00,16.90
2009,07,16,09,01,16.90
2009,07,16,09,02,17.00
2009,07,16,09,03,17.00
2009,07,16,09,04,17.10
2009,07,16,09,05,17.10
2009,07,16,09,06,17.10
2009,07,16,09,07,17.10
2009,07,16,09,08,17.20
2009,07,16,09,09,17.20
2009,07,16,09,10,17.30
2009,07,16,09,11,17.30
2009,07,16,09,12,17.30
2009,07,16,09,13,17.30
2009,07,16,09,14,17.30
2009,07,16,09,15,17.20
2009,07,16,09,16,17.20
2009,07,16,09,17,17.30
2009,07,16,09,18,17.30
2009,07,16,09,19,17.40
2009,07,16,09,20,17.40
2009,07,16,09,21,17.30
2009,07,16,09,22,17.30
2009,07,16,09,23,17.20
2009,07,16,09,24,17.20
2009,07,16,09,25,17.10
2009,07,16,09,26,17.00
2009,07,16,09,27,17.00
2009,07,16,09,28,17.00
2009,07,16,09,29,17.00
2009,07,16,09,30,17.00
2009,07,16,09,31,16.90
2009,07,16,09,32,16.90
2009,07,16,09,33,16.90
2009,07,16,09,34,16.90
2009,07,16,09,35,17.00
2009,07,16,09,36,17.00
2009,07,16,09,37,17.00
2009,07,16,09,38,16.90
2009,07,16,09,39,16.90
2009,07,16,09,40,16.90
2009,07,16,09,41,16.90
2009,07,16,09,42,16.90
2009,07,16,09,43,16.90
2009,07,16,09,44,17.00
2009,07,16,09,45,17.10
2009,07,16,09,46,17.20
2009,07,16,09,47,17.20
2009,07,16,09,48,17.30
2009,07,16,09,49,17.30
2009,07,16,09,50,17.30
2009,07,16,09,51,17.30
2009,07,16,09,52,17.40
2009,07,16,09,53,17.40
2009,07,16,09,54,17.40
2009,07,16,09,55,17.40
2009,07,16,09,56,17.40
2009,07,16,09,57,17.40
2009,07,16,09,58,17.30
2009,07,16,09,59,17.30
2009,07,16,10,00,17.30
2009,07,16,10,01,17.30
2009,07,16,10,02,17.30
2009,07,16,10,03,17.30
2009,07,16,10,04,17.40
2009,07,16,10,05,17.50
2009,07,16,10,06,17.60
2009,07,16,10,07,17.60
2009,07,16,10,08,17.70
2009,07,16,10,09,17.80
2009,07,16,10,10,17.80
2009,07,16,10,11,17.80
2009,07,16,10,12,17.80
2009,07,16,10,13,17.80
2009,07,16,10,14,17.90
2009,07,16,10,15,18.00
2009,07,16,10,16,18.10
2009,07,16,10,17,18.20
2009,07,16,10,18,18.20
2009,07,16,10,19,18.30
2009,07,16,10,20,18.40
2009,07,16,10,21,18.50
2009,07,16,10,22,18.60
2009,07,16,10,23,18.60
2009,07,16,10,24,18.60
2009,07,16,10,25,18.70
2009,07,16,10,26,18.80
2009,07,16,10,27,18.90
2009,07,16,10,28,18.90
2009,07,16,10,29,19.00
2009,07,16,10,30,19.10
2009,07,16,10,31,19.10
2009,07,16,10,32,19.10
2009,07,16,10,33,19.20
2009,07,16,10,34,19.20
2009,07,16,10,35,19.20
2009,07,16,10,36,19.20
2009,07,16,10,37,19.20
2009,07,16,10,38,19.20
2009,07,16,10,39,19.30
2009,07,16,10,40,19.40
2009,07,16,10,41,19.40
2009,07,16,10,42,19.50
2009,07,16,10,43,19.50
2009,07,16,10,44,19.70
2009,07,16,10,45,19.70
2009,07,16,10,46,19.80
2009,07,16,10,47,19.80
2009,07,16,10,48,19.80
2009,07,16,10,49,19.90
2009,07,16,10,50,19.90
2009,07,16,10,51,19.90
2009,07,16,10,52,19.90
2009,07,16,10,53,19.80
2009,07,16,10,54,19.70
2009,07,16,10,55,19.70
2009,07,16,10,56,19.70
2009,07,16,10,57,19.70
2009,07,16,10,58,19.80
2009,07,16,10,59,19.90
2009,07,16,11,00,19.90
2009,07,16,11,01,20.00
2009,07,16,11,02,20.00
2009,07,16,11,03,20.00
2009,07,16,11,04,20.00
2009,07,16,11,05,20.10
2009,07,16,11,06,20.10
2009,07,16,11,07,20.10
2009,07,16,11,08,20.10
2009,07,16,11,09,20.20
2009,07,16,11,10,20.30
2009,07,16,11,11,20.50
2009,07,16,11,12,20.60
2009,07,16,11,13,20.70
2009,07,16,11,14,20.80
2009,07,16,11,15,21.00
2009,07,16,11,16,21.20
2009,07,16,11,17,21.40
2009,07,16,11,18,21.50
2009,07,16,11,19,21.60
2009,07,16,11,20,21.50
2009,07,16,11,21,21.50
2009,07,16,11,22,21.50
2009,07,16,11,23,21.60
2009,07,16,11,24,21.60
2009,07,16,11,25,21.70
2009,07,16,11,26,21.80
2009,07,16,11,27,21.80
2009,07,16,11,28,21.80
2009,07,16,11,29,21.80
2009,07,16,11,30,21.80
2009,07,16,11,31,21.80
2009,07,16,11,32,21.90
2009,07,16,11,33,21.90
2009,07,16,11,34,21.80
2009,07,16,11,35,21.90
2009,07,16,11,36,21.90
2009,07,16,11,37,22.00
2009,07,16,11,38,22.10
2009,07,16,11,39,22.00
2009,07,16,11,40,22.00
2009,07,16,11,41,22.00
2009,07,16,11,42,21.90
2009,07,16,11,43,22.00
2009,07,16,11,44,22.10
2009,07,16,11,45,22.20
2009,07,16,11,46,22.20
2009,07,16,11,47,22.20
2009,07,16,11,48,22.20
2009,07,16,11,49,22.20
2009,07,16,11,50,22.20
2009,07,16,11,51,22.20
2009,07,16,11,52,22.30
2009,07,16,11,53,22.30
2009,07,16,11,54,22.30
2009,07,16,11,55,22.30
2009,07,16,11,56,22.30
2009,07,16,11,57,22.30
2009,07,16,11,58,22.30
2009,07,16,11,59,22.30
2009,07,16,12,00,22.30
2009,07,16,12,01,22.20
2009,07,16,12,02,22.30
2009,07,16,12,03,22.30
2009,07,16,12,04,22.30
2009,07,16,12,05,22.40
2009,07,16,12,06,22.40
2009,07,16,12,07,22.50
2009,07,16,12,08,22.50
2009,07,16,12,09,22.60
2009,07,16,12,10,22.60
2009,07,16,12,11,22.80
2009,07,16,12,12,22.90
2009,07,16,12,13,23.00
2009,07,16,12,14,22.90
2009,07,16,12,15,22.90
2009,07,16,12,16,22.80
2009,07,16,12,17,22.80
2009,07,16,12,18,22.80
2009,07,16,12,19,22.70
2009,07,16,12,20,22.70
2009,07,16,12,21,22.70
2009,07,16,12,22,22.60
2009,07,16,12,23,22.60
2009,07,16,12,24,22.50
2009,07,16,12,25,22.50
2009,07,16,12,26,22.50
2009,07,16,12,27,22.50
2009,07,16,12,28,22.60
2009,07,16,12,29,22.50
2009,07,16,12,30,22.50
2009,07,16,12,31,22.50
2009,07,16,12,32,22.60
2009,07,16,12,33,22.70
2009,07,16,12,34,22.70
2009,07,16,12,35,22.90
2009,07,16,12,36,22.90
2009,07,16,12,37,23.00
2009,07,16,12,38,22.90
2009,07,16,12,39,22.90
2009,07,16,12,40,22.90
2009,07,16,12,41,22.90
2009,07,16,12,42,22.90
2009,07,16,12,43,22.90
2009,07,16,12,44,22.90
2009,07,16,12,45,23.00
2009,07,16,12,46,22.90
2009,07,16,12,47,22.90
2009,07,16,12,48,22.90
2009,07,16,12,49,22.90
2009,07,16,12,50,22.80
2009,07,16,12,51,22.60
2009,07,16,12,52,22.50
2009,07,16,12,53,22.40
2009,07,16,12,54,22.30
2009,07,16,12,55,22.30
2009,07,16,12,56,22.40
2009,07,16,12,57,22.50
2009,07,16,12,58,22.60
2009,07,16,12,59,22.60
2009,07,16,13,00,22.70
2009,07,16,13,01,22.80
2009,07,16,13,02,23.00
2009,07,16,13,03,23.10
2009,07,16,13,04,23.10
2009,07,16,13,05,23.10
2009,07,16,13,06,23.00
2009,07,16,13,07,22.90
2009,07,16,13,08,22.70
2009,07,16,13,09,22.70
2009,07,16,13,10,22.70
2009,07,16,13,11,22.60
2009,07,16,13,12,22.50
2009,07,16,13,13,22.40
2009,07,16,13,14,22.20
2009,07,16,13,15,22.10
2009,07,16,13,16,21.90
2009,07,16,13,17,21.80
2009,07,16,13,18,21.80
2009,07,16,13,19,21.80
2009,07,16,13,20,21.70
2009,07,16,13,21,21.80
2009,07,16,13,22,21.80
2009,07,16,13,23,21.90
2009,07,16,13,24,22.00
2009,07,16,13,25,22.10
2009,07,16,13,26,22.10
2009,07,16,13,27,22.10
2009,07,16,13,28,22.10
2009,07,16,13,29,22.00
2009,07,16,13,30,22.00
2009,07,16,13,31,22.00
2009,07,16,13,32,22.00
2009,07,16,13,33,21.90
2009,07,16,13,34,22.00
2009,07,16,13,35,22.00
2009,07,16,13,36,22.00
2009,07,16,13,37,22.00
2009,07,16,13,38,22.00
2009,07,16,13,39,22.10
2009,07,16,13,40,22.20
2009,07,16,13,41,22.30
2009,07,16,13,42,22.40
2009,07,16,13,43,22.60
2009,07,16,13,44,22.70
2009,07,16,13,45,22.80
2009,07,16,13,46,22.90
2009,07,16,13,47,22.90
2009,07,16,13,48,22.90
2009,07,16,13,49,22.90
2009,07,16,13,50,22.90
2009,07,16,13,51,23.00
2009,07,16,13,52,23.00
2009,07,16,13,53,23.10
2009,07,16,13,54,23.10
2009,07,16,13,55,23.20
2009,07,16,13,56,23.30
2009,07,16,13,57,23.20
2009,07,16,13,58,23.10
2009,07,16,13,59,23.10
2009,07,16,14,00,23.20
2009,07,16,14,01,23.30
2009,07,16,14,02,23.30
2009,07,16,14,03,23.30
2009,07,16,14,04,23.20
2009,07,16,14,05,23.20
2009,07,16,14,06,23.20
2009,07,16,14,07,23.30
2009,07,16,14,08,23.30
2009,07,16,14,09,23.40
2009,07,16,14,10,23.40
2009,07,16,14,11,23.50
2009,07,16,14,12,23.60
2009,07,16,14,13,23.80
2009,07,16,14,14,23.90
2009,07,16,14,15,23.90
2009,07,16,14,16,23.80
2009,07,16,14,17,23.80
2009,07,16,14,18,23.80
2009,07,16,14,19,23.70
2009,07,16,14,20,23.80
2009,07,16,14,21,23.80
2009,07,16,14,22,23.80
2009,07,16,14,23,23.90
2009,07,16,14,24,24.00
2009,07,16,14,25,24.20
2009,07,16,14,26,24.30
2009,07,16,14,27,24.50
2009,07,16,14,28,24.60
2009,07,16,14,29,24.60
2009,07,16,14,30,24.70
2009,07,16,14,31,24.80
2009,07,16,14,32,24.80
2009,07,16,14,33,24.70
2009,07,16,14,34,24.70
2009,07,16,14,35,24.80
2009,07,16,14,36,24.90
2009,07,16,14,37,25.00
2009,07,16,14,38,25.00
2009,07,16,14,39,24.90
2009,07,16,14,40,24.90
2009,07,16,14,41,24.90
2009,07,16,14,42,24.80
2009,07,16,14,43,24.80
2009,07,16,14,44,24.80
2009,07,16,14,45,24.80
2009,07,16,14,46,24.80
2009,07,16,14,47,24.80
2009,07,16,14,48,24.80
2009,07,16,14,49,24.90
2009,07,16,14,50,25.00
2009,07,16,14,51,25.00
2009,07,16,14,52,25.00
2009,07,16,14,53,25.00
2009,07,16,14,54,24.90
2009,07,16,14,55,24.90
2009,07,16,14,56,24.90
2009,07,16,14,57,25.00
2009,07,16,14,58,25.10
2009,07,16,14,59,25.20
2009,07,16,15,00,25.30
2009,07,16,15,01,25.40
2009,07,16,15,02,25.40
2009,07,16,15,03,25.50
2009,07,16,15,04,25.50
2009,07,16,15,05,25.60
2009,07,16,15,06,25.70
2009,07,16,15,07,25.60
2009,07,16,15,08,25.70
2009,07,16,15,09,25.70
2009,07,16,15,10,25.60
2009,07,16,15,11,25.60
2009,07,16,15,12,25.60
2009,07,16,15,13,25.60
2009,07,16,15,14,25.50
2009,07,16,15,15,25.50
2009,07,16,15,16,25.50
2009,07,16,15,17,25.50
2009,07,16,15,18,25.60
2009,07,16,15,19,25.60
2009,07,16,15,20,25.70
2009,07,16,15,21,25.70
2009,07,16,15,22,25.70
2009,07,16,15,23,25.70
2009,07,16,15,24,25.60
2009,07,16,15,25,25.50
2009,07,16,15,26,25.50
2009,07,16,15,27,25.50
2009,07,16,15,28,25.40
2009,07,16,15,29,25.50
2009,07,16,15,30,25.60
2009,07,16,15,31,25.70
2009,07,16,15,32,25.80
2009,07,16,15,33,25.90
2009,07,16,15,34,25.90
2009,07,16,15,35,25.90
2009,07,16,15,36,25.90
2009,07,16,15,37,25.90
2009,07,16,15,38,25.90
2009,07,16,15,39,26.00
2009,07,16,15,40,26.00
2009,07,16,15,41,25.90
2009,07,16,15,42,25.90
2009,07,16,15,43,25.90
2009,07,16,15,44,25.90
2009,07,16,15,45,25.90
2009,07,16,15,46,25.90
2009,07,16,15,47,25.90
2009,07,16,15,48,25.80
2009,07,16,15,49,25.90
2009,07,16,15,50,25.90
2009,07,16,15,51,26.10
2009,07,16,15,52,26.20
2009,07,16,15,53,26.30
2009,07,16,15,54,26.30
2009,07,16,15,55,26.40
2009,07,16,15,56,26.50
2009,07,16,15,57,26.50
2009,07,16,15,58,26.50
2009,07,16,15,59,26.40
2009,07,16,16,00,26.30
2009,07,16,16,01,26.30
2009,07,16,16,02,26.20
2009,07,16,16,03,26.10
2009,07,16,16,04,26.10
2009,07,16,16,05,26.10
2009,07,16,16,06,26.00
2009,07,16,16,07,25.90
2009,07,16,16,08,25.90
2009,07,16,16,09,25.90
2009,07,16,16,10,25.90
2009,07,16,16,11,25.80
2009,07,16,16,12,25.70
2009,07,16,16,13,25.50
2009,07,16,16,14,25.50
2009,07,16,16,15,25.40
2009,07,16,16,16,25.30
2009,07,16,16,17,25.30
2009,07,16,16,18,25.30
2009,07,16,16,19,25.30
2009,07,16,16,20,25.40
2009,07,16,16,21,25.40
2009,07,16,16,22,25.40
2009,07,16,16,23,25.40
2009,07,16,16,24,25.30
2009,07,16,16,25,25.30
2009,07,16,16,26,25.30
2009,07,16,16,27,25.20
2009,07,16,16,28,25.20
2009,07,16,16,29,25.20
2009,07,16,16,30,25.30
2009,07,16,16,31,25.40
2009,07,16,16,32,25.50
2009,07,16,16,33,25.60
2009,07,16,16,34,25.60
2009,07,16,16,35,25.60
2009,07,16,16,36,25.50
2009,07,16,16,37,25.40
2009,07,16,16,38,25.40
2009,07,16,16,39,25.40
2009,07,16,16,40,25.30
2009,07,16,16,41,25.20
2009,07,16,16,42,25.10
2009,07,16,16,43,25.00
2009,07,16,16,44,25.00
2009,07,16,16,45,25.00
2009,07,16,16,46,25.00
2009,07,16,16,47,25.10
2009,07,16,16,48,25.20
2009,07,16,16,49,25.20
2009,07,16,16,50,25.20
2009,07,16,16,51,25.20
2009,07,16,16,52,25.20
2009,07,16,16,53,25.30
2009,07,16,16,54,25.40
2009,07,16,16,55,25.50
2009,07,16,16,56,25.60
2009,07,16,16,57,25.70
2009,07,16,16,58,25.80
2009,07,16,16,59,25.70
2009,07,16,17,00,25.70
2009,07,16,17,01,25.60
2009,07,16,17,02,25.60
2009,07,16,17,03,25.50
2009,07,16,17,04,25.50
2009,07,16,17,05,25.50
2009,07,16,17,06,25.60
2009,07,16,17,07,25.70
2009,07,16,17,08,25.70
2009,07,16,17,09,25.80
2009,07,16,17,10,25.70
2009,07,16,17,11,25.70
2009,07,16,17,12,25.80
2009,07,16,17,13,25.80
2009,07,16,17,14,25.80
2009,07,16,17,15,25.90
2009,07,16,17,16,25.90
2009,07,16,17,17,25.90
2009,07,16,17,18,25.90
2009,07,16,17,19,25.80